Orangeburg, SC

1:15 PM EST on November 21, 2017 (GMT -0500)
Orangeburg Municipal

Weather History for KOGB - November, 2010

Change the Weather History Date:

Monday, November 22, 2010

  Actual Average Record
Temperature  
Mean Temperature 62 °F 54 °F  
Max Temperature 76 °F 66 °F 80 °F (2011)
Min Temperature 48 °F 43 °F 21 °F (2000)
Degree Days  
Heating Degree Days 3 11  
Month to date heating degree days 225 181  
Since 1 July heating degree days 277 271  
Cooling Degree Days 0 0  
Month to date cooling degree days 0 12  
Year to date cooling degree days 2506 2099  
Growing Degree Days 12 (Base 50)    
Moisture  
Dew Point 51 °F    
Average Humidity 80    
Maximum Humidity 100    
Minimum Humidity 36    
Precipitation  
Precipitation 0.00 in 0.10 in 2.76 in (1992)
Month to date precipitation 0.93 2.09  
Year to date precipitation 37.91 42.58  
Sea Level Pressure  
Sea Level Pressure 30.33 in    
Wind  
Wind Speed 2 mph (SE)    
Max Wind Speed 8 mph    
Max Gust Speed 12 mph    
Visibility 6 miles    
Events Fog    
T = Trace of Precipitation, MM = Missing Value Source: NWS Daily Summary

Daily Weather History Graph

Daily Weather History Graph

Search for Another Location

Airport or City:

Trip Planner

Search our weather history database for the weather conditions in past years. The results will help you decide how hot, cold, wet, or windy it might be!

Date:

Astronomy

Nov. 22, 2010 Rise Set
Actual Time 7:01 AM EST 5:17 PM EST
Civil Twilight 6:34 AM EST 5:44 PM EST
Nautical Twilight 6:04 AM EST 6:14 PM EST
Astronomical Twilight 5:34 AM EST 6:44 PM EST
Moon 6:03 PM EST (11/22) 7:56 AM EST (11/22)
Length of Visible Light 11h 09m
Length of Day
10h 16m
Full, 99% of the Moon is Illuminated
Nov 22
Full
Nov 28
Last Quarter
Dec 5
New
Dec 13
First Quarter
Dec 21
Full

Hourly Weather History & Observations

Time (EST) Temp. Dew Point Humidity Pressure Visibility Wind Dir Wind Speed Gust Speed Precip Events Conditions
12:53 AM 48.9 °F 46.9 °F 93% 30.35 in 4.0 mi Calm Calm - N/A   Clear
1:26 AM 48.2 °F 46.4 °F 93% 30.35 in 6.0 mi Calm Calm - N/A   Scattered Clouds
1:35 AM 48.2 °F 46.4 °F 93% 30.35 in 6.0 mi Calm Calm - N/A   Mostly Cloudy
1:53 AM 48.9 °F 48.0 °F 97% 30.35 in 5.0 mi Calm Calm - N/A   Overcast
2:08 AM 48.2 °F 48.2 °F 100% 30.35 in 1.8 mi Calm Calm - N/A   Overcast
2:10 AM 48.2 °F 48.2 °F 100% 30.35 in 0.8 mi Calm Calm - N/A   Mist
2:53 AM 48.9 °F 48.0 °F 97% 30.35 in 0.2 mi Calm Calm - N/A Fog Fog
3:53 AM 48.9 °F 48.0 °F 97% 30.35 in 0.2 mi Calm Calm - N/A Fog Fog
4:53 AM 48.9 °F 48.0 °F 97% 30.35 in 0.2 mi Calm Calm - 0.01 in Fog Fog
5:53 AM 48.9 °F 48.0 °F 97% 30.35 in 0.2 mi Calm Calm - N/A Fog Fog
6:53 AM 50.0 °F 48.9 °F 96% 30.37 in 0.2 mi Calm Calm - N/A Fog Fog
7:53 AM 50.0 °F 48.9 °F 96% 30.38 in 0.2 mi Calm Calm - N/A Fog Fog
8:53 AM 51.1 °F 50.0 °F 96% 30.39 in 0.2 mi Calm Calm - N/A Fog Fog
9:53 AM 55.9 °F 55.0 °F 97% 30.40 in 0.2 mi NE 3.5 mph - N/A Fog Fog
10:19 AM 57.2 °F 55.4 °F 94% 30.40 in 1.8 mi Calm Calm - N/A   Overcast
10:27 AM 59.0 °F 57.2 °F 94% 30.39 in 2.5 mi Calm Calm - N/A   Mostly Cloudy
10:34 AM 60.8 °F 57.2 °F 88% 30.39 in 4.0 mi Calm Calm - N/A   Mostly Cloudy
10:41 AM 60.8 °F 57.2 °F 88% 30.39 in 5.0 mi Calm Calm - N/A   Scattered Clouds
10:53 AM 64.0 °F 57.0 °F 78% 30.38 in 8.0 mi Calm Calm - N/A   Mostly Cloudy
11:53 AM 72.0 °F 55.0 °F 55% 30.35 in 10.0 mi Calm Calm - N/A   Clear
12:53 PM 75.0 °F 46.9 °F 37% 30.32 in 10.0 mi Calm Calm - N/A   Partly Cloudy
1:53 PM 73.9 °F 46.9 °F 38% 30.29 in 10.0 mi Calm Calm - N/A   Partly Cloudy
2:53 PM 75.0 °F 46.9 °F 37% 30.27 in 10.0 mi West 4.6 mph - N/A   Clear
3:53 PM 73.9 °F 46.9 °F 38% 30.26 in 10.0 mi ESE 3.5 mph - N/A   Clear
4:53 PM 72.0 °F 48.9 °F 44% 30.25 in 10.0 mi Calm Calm - N/A   Clear
5:53 PM 66.9 °F 50.0 °F 54% 30.25 in 10.0 mi ESE 4.6 mph - N/A   Clear
6:53 PM 64.0 °F 51.1 °F 63% 30.26 in 10.0 mi SE 3.5 mph - N/A   Clear
7:53 PM 63.0 °F 55.0 °F 75% 30.27 in 10.0 mi South 5.8 mph - N/A   Clear
8:53 PM 62.1 °F 55.9 °F 80% 30.27 in 10.0 mi South 3.5 mph - N/A   Partly Cloudy
9:53 PM 60.1 °F 55.9 °F 86% 30.26 in 10.0 mi SSE 4.6 mph - N/A   Overcast
10:53 PM 60.1 °F 55.9 °F 86% 30.25 in 10.0 mi SSE 6.9 mph - N/A   Clear
11:53 PM 59.0 °F 55.9 °F 90% 30.24 in 10.0 mi Calm Calm - N/A   Overcast